Location: Arboucave
(43.6130°N, 0.4343°W)
Time: 06:20:51
(UTC+00:00)

ATLAS 2AS CENTAUR R/B - Pass Details

Date: 17 November 2025
Orbit: 1047 x 1164 km, 63.7° (Epoch: 04 December)

Event Time Altitude Azimuth Distance (km) Brightness Sun altitude
Rises 20:07:01 0° 323° (NW) 3,838 6.2 -38.3°
Reaches altitude 10° 20:09:39 10° 323° (NW) 2,873 5.4 -38.7°
Enters shadow 20:13:01 32° 324° (NW) 1,718 4.0 -39.3°
